DW8097 Weather Reports


time (UTC)temp
C
wind
direction
speed
KPH
gust
KPH
rain 1hr
cm
rain 24hr
cm
rain mn
cm
humidity
%
barometer
mb
20260510133015 8 287 0.0 3.2 0.00 0.00 0.00 56 1018.4
20260510131513 8 339 1.6 4.8 0.00 0.00 0.00 56 1018.4
20260510130013 8 168 0.0 1.6 0.00 0.00 0.00 62 1018.3
20260510124516 7 209 0.0 3.2 0.00 0.00 0.00 63 1018.0
20260510123007 6 309 0.0 3.2 0.00 0.00 0.00 68 1017.7
20260510121506 6 213 0.0 0.0 0.00 0.00 0.00 67 1017.5
20260510120009 4 213 0.0 1.6 0.00 0.00 0.00 71 1017.3
20260510114501 3 213 0.0 1.6 0.00 0.00 0.00 73 1017.2
20260510113059 3 228 0.0 3.2 0.00 0.00 0.00 73 1017.1
20260510111600 3 260 0.0 1.6 0.00 0.00 0.00 67 1017.1
20260510110056 3 192 0.0 1.6 0.00 0.00 0.00 70 1016.9
20260510104608 3 192 0.0 1.6 0.00 0.00 0.00 71 1016.8
20260510103022 2 192 0.0 4.8 0.00 0.00 0.00 75 1016.6
20260510101519 2 333 0.0 4.8 0.00 0.00 0.00 73 1016.3
20260510100016 3 218 0.0 3.2 0.00 0.00 0.00 69 1015.9
20260510094513 2 218 1.6 4.8 0.00 0.00 0.00 71 1015.8
20260510093010 4 218 0.0 0.0 0.00 0.00 0.00 68 1015.7
20260510091510 3 218 0.0 1.6 0.00 0.00 0.00 68 1015.6
20260510090007 3 218 0.0 3.2 0.00 0.00 0.00 70 1015.5
20260510084510 3 218 0.0 1.6 0.00 0.00 0.00 68 1015.3
20260510083001 3 218 0.0 1.6 0.00 0.00 0.00 68 1015.0
20260510081618 4 218 0.0 1.6 0.00 0.00 0.00 68 1014.9
20260510081501 4 218 0.0 1.6 0.00 0.00 0.00 68 1014.9
20260510080056 4 218 0.0 1.6 0.00 0.00 0.00 68 1014.8
20260510074556 4 218 0.0 3.2 0.00 0.00 0.00 69 1014.6
20260510073053 4 218 0.0 1.6 0.00 0.00 0.00 66 1014.6
20260510071548 5 218 0.0 0.0 0.00 0.00 0.00 65 1014.5
20260510070045 6 218 0.0 1.6 0.00 0.00 0.00 64 1014.4
20260510064547 6 218 0.0 1.6 0.00 0.00 0.00 64 1014.4
20260510063042 6 218 1.6 3.2 0.00 0.00 0.00 64 1014.4
20260510061550 6 225 1.6 4.8 0.00 0.00 0.00 63 1014.2
20260510060009 5 217 1.6 4.8 0.00 0.00 0.00 66 1014.2
20260510054508 6 232 0.0 3.2 0.00 0.00 0.00 62 1014.1
20260510053002 7 279 0.0 3.2 0.00 0.00 0.00 62 1013.9
20260510051600 7 261 0.0 3.2 0.00 0.00 0.00 61 1013.8
20260510050058 6 231 1.6 4.8 0.00 0.00 0.00 62 1013.5
20260510044558 7 297 0.0 4.8 0.00 0.00 0.00 59 1013.5
20260510043055 7 231 0.0 3.2 0.00 0.00 0.00 58 1013.1
20260510041548 7 229 0.0 3.2 0.00 0.00 0.00 57 1013.0
20260510040050 8 230 0.0 3.2 0.00 0.00 0.00 57 1012.9
20260510034550 8 229 0.0 3.2 0.00 0.00 0.00 55 1012.7
20260510033040 8 229 0.0 1.6 0.00 0.00 0.00 53 1012.5
20260510031554 8 228 0.0 3.2 0.00 0.00 0.00 57 1012.3
20260510030038 8 227 0.0 3.2 0.00 0.00 0.00 55 1012.1
20260510024535 8 225 0.0 3.2 0.00 0.00 0.00 53 1011.8
20260510023028 9 225 0.0 3.2 0.00 0.00 0.00 50 1011.5
20260510021532 10 228 0.0 3.2 0.00 0.00 0.00 47 1011.2
20260510020022 11 279 0.0 3.2 0.00 0.00 0.00 44 1010.9
20260510014517 12 5 0.0 3.2 0.00 0.00 0.00 37 1010.7
20260510013015 12 355 0.0 4.8 0.00 0.00 0.00 37 1010.4
20260510011544 13 360 1.6 11.3 0.00 0.00 0.00 35 1010.0
20260510010039 13 355 6.4 17.7 0.00 0.00 0.00 33 1009.8
20260510004533 14 355 6.4 12.9 0.00 0.00 0.00 32 1009.6
20260510003032 14 355 8.0 24.1 0.00 0.00 0.00 32 1009.4
20260510001529 15 19 8.0 22.5 0.00 0.00 0.00 30 1009.2
20260510000026 15 49 8.0 20.9 0.00 0.00 0.00 29 1008.9
20260509234534 15 338 9.7 17.7 0.00 0.00 0.00 30 1008.8
20260509233021 15 355 12.9 25.7 0.00 0.00 0.00 28 1008.6
20260509231519 15 355 14.5 29.0 0.00 0.00 0.00 27 1008.4
20260509230018 15 9 14.5 32.2 0.00 0.00 0.00 26 1008.2
20260509224513 16 333 16.1 30.6 0.00 0.00 0.00 25 1008.0
20260509223016 16 328 17.7 30.6 0.00 0.00 0.00 25 1007.9
20260509221510 16 360 12.9 25.7 0.00 0.00 0.00 26 1007.6
20260509220013 16 36 16.1 27.4 0.00 0.00 0.00 27 1007.6
20260509214505 16 12 9.7 30.6 0.00 0.00 0.00 28 1007.5
20260509213005 16 355 14.5 32.2 0.00 0.00 0.00 27 1007.4
20260509211504 16 355 16.1 27.4 0.00 0.00 0.00 26 1007.4
20260509210003 16 282 14.5 29.0 0.00 0.00 0.00 27 1007.0
20260509204603 17 355 12.9 32.2 0.00 0.00 0.00 27 1007.0
20260509203058 16 13 16.1 29.0 0.00 0.00 0.00 29 1006.8
20260509201557 16 34 11.3 29.0 0.00 0.00 0.00 30 1006.7
20260509200107 16 16 16.1 32.2 0.00 0.00 0.00 30 1006.6
20260509194529 16 322 12.9 30.6 0.00 0.00 0.00 30 1006.6
20260509193025 16 355 11.3 30.6 0.00 0.00 0.00 28 1006.6
20260509191551 16 27 22.5 38.6 0.00 0.00 0.00 28 1006.3
20260509190056 16 323 19.3 30.6 0.00 0.00 0.00 31 1006.3
20260509184618 16 5 19.3 38.6 0.00 0.00 0.00 32 1006.1
20260509183044 16 5 17.7 29.0 0.00 0.00 0.00 35 1005.9
20260509181546 16 17 12.9 29.0 0.00 0.00 0.00 35 1005.6
20260509180040 15 344 12.9 35.4 0.00 0.00 0.00 36 1005.5
20260509174537 15 355 12.9 35.4 0.00 0.00 0.00 38 1005.5
20260509173035 15 15 16.1 30.6 0.00 0.00 0.00 37 1005.3
20260509171533 15 348 11.3 25.7 0.00 0.00 0.00 37 1005.3
20260509170031 14 20 16.1 25.7 0.00 0.00 0.00 40 1005.2
20260509164525 14 5 22.5 33.8 0.00 0.00 0.00 40 1005.4
20260509163027 14 340 17.7 32.2 0.00 0.00 0.00 39 1005.1
20260509161512 14 360 19.3 33.8 0.00 0.00 0.00 44 1005.0
20260509160009 14 336 9.7 25.7 0.00 0.00 0.00 50 1004.9
20260509154544 13 32 14.5 27.4 0.00 0.00 0.00 55 1004.8
20260509153040 12 321 12.9 24.1 0.00 0.00 0.00 58 1004.5
20260509151507 12 321 9.7 24.1 0.00 0.00 0.00 61 1004.3
20260509150007 12 5 12.9 22.5 0.00 0.00 0.00 60 1004.1
20260509144504 12 312 12.9 22.5 0.00 0.00 0.00 61 1003.9
20260509143006 12 5 14.5 25.7 0.00 0.00 0.00 62 1003.8
20260509141503 12 19 17.7 30.6 0.00 0.00 0.00 62 1003.5
20260509140002 11 360 12.9 22.5 0.00 0.00 0.00 67 1003.4
20260509134529 11 32 9.7 20.9 0.00 0.00 0.00 64 1003.1